Location: Santaluz Observatory
(32.9930°N, 117.1510°W)
Time: 05:49:15
(UTC-08:00)

HST - Visible Passes

Search period start: 26 November 2014 00:00
Search period end: 06 December 2014 00:00
Orbit: 545 x 550 km, 28.5° (Epoch: 24 November)

Date Brightness Start Highest point End Pass type
(mag) Time Alt. Az. Time Alt. Az. Time Alt. Az.
26 Nov 1.9 04:21:12 39° SSE 04:21:12 39° SSE 04:24:27 10° ESE visible
26 Nov 1.9 05:57:44 10° WSW 06:01:36 37° S 06:05:27 10° ESE visible
27 Nov 2.3 04:14:11 34° SE 04:14:11 34° SE 04:16:54 10° ESE visible
27 Nov 2.1 05:50:15 10° WSW 05:54:01 32° SSW 05:57:46 10° SE visible
28 Nov 2.7 04:07:08 27° SE 04:07:08 27° SE 04:09:19 10° ESE visible
28 Nov 2.3 05:42:49 10° WSW 05:46:25 28° SSW 05:50:00 10° SE visible
29 Nov 3.1 04:00:04 22° SE 04:00:04 22° SE 04:01:43 10° ESE visible
29 Nov 2.5 05:35:36 11° WSW 05:38:47 23° SSW 05:42:08 10° SE visible
30 Nov 3.5 03:53:00 17° SE 03:53:00 17° SE 03:54:04 10° ESE visible
30 Nov 2.7 05:28:32 12° WSW 05:31:09 19° SSW 05:34:09 10° SSE visible
01 Dec 3.8 03:45:57 12° SE 03:45:57 12° SE 03:46:23 10° SE visible
01 Dec 3.0 05:21:29 12° SW 05:23:29 15° SSW 05:25:58 10° SSE visible
02 Dec 3.1 05:14:26 11° SW 05:15:48 12° SSW 05:17:24 10° S visible
